Flag for Norway Weather past 2 weeks in Askim, Norway

Now
54 °F

Sunny.


Feels Like: 52 °F
Forecast: 53 / 66 °F
Wind: 6 mph from Southwest

Location: Rygge

Current Time: Aug 28, 2015 at 8:00:17 AM

Latest Report: Aug 28, 2015 at 7:20 AM


Visibility: 10 mi

Pressure: 29.65 "Hg

Humidity: 88%

Dew point: 50 °F

Location of AskimLocation

Historic Weather in Askim — Graph

°F

Askim temperature yesterday

Maximum temperature yesterday: 64 °F (at 2:20 PM)
Minimum temperature yesterday: 57 °F (at 5:50 AM)
Average temperature yesterday: 61 °F

Past Weeks' High & Low Weather Summary

 TemperatureHumidityPressure
High77 °F (Aug 23, 2:50 PM)100% (Aug 13, 6:50 AM)30.39 "Hg (Aug 13, 6:50 AM)
Low45 °F (Aug 22, 5:20 AM)25% (Aug 14, 4:20 PM)29.53 "Hg (Aug 27, 2:20 PM)
Average63 °F72%30.08 "Hg
* Reported Aug 13 6:20 AM — Aug 28 6:50 AM, Askim, Weather by CustomWeather, © 2015

Note: Actual official high and low records may vary slightly from our data, if they occured in-between our weather recording intervals... More about our weather records

Advertising

Askim weather history for previous 24 hours

 ConditionsComfort  
Time TempWeatherWind HumidityBarometerVisibility
6:50 AM
Fri, Aug 28
54 °FClear.8 mph88%29.62 "Hg10 mi
5:50 AM54 °FPassing clouds.6 mph88%29.62 "HgN/A
4:50 AM54 °FCool.7 mph94%29.62 "HgN/A
4:20 AM54 °FCool.3 mph94%29.62 "HgN/A
3:50 AM55 °FCool.5 mph88%29.62 "HgN/A
3:20 AM55 °FCool.7 mph88%29.59 "HgN/A
2:50 AM54 °FCool.3 mph94%29.59 "HgN/A
1:50 AM57 °FClear.7 mph82%29.59 "Hg10 mi
12:50 AM59 °FPassing clouds.8 mph82%29.59 "HgN/A
12:20 AM59 °FClear.9 mph82%29.59 "Hg10 mi
11:50 PM
Thu, Aug 27
59 °FClear.9 mph82%29.59 "Hg10 mi
11:20 PM59 °FClear.9 mph77%29.56 "Hg10 mi
10:50 PM59 °FClear.12 mph77%29.56 "Hg10 mi
10:20 PM59 °FClear.9 mph77%29.56 "Hg10 mi
9:50 PM61 °FClear.12 mph72%29.56 "Hg10 mi
9:20 PM59 °FSunny.10 mph77%29.56 "Hg10 mi
8:50 PM59 °FPassing clouds.8 mph72%29.53 "HgN/A
8:20 PM61 °FPassing clouds.8 mph72%29.53 "HgN/A
7:50 PM63 °FPassing clouds.7 mph73%29.53 "HgN/A
7:20 PM64 °FScattered clouds.12 mph78%29.53 "HgN/A
6:50 PM64 °FPartly sunny.14 mph83%29.53 "HgN/A
6:20 PM64 °FScattered clouds.14 mph83%29.53 "HgN/A
5:50 PM64 °FBroken clouds.17 mph83%29.53 "HgN/A
5:20 PM64 °FPartly sunny.17 mph83%29.53 "HgN/A
4:50 PM64 °FBroken clouds.15 mph83%29.53 "HgN/A
3:50 PM64 °FBroken clouds.15 mph83%29.53 "HgN/A
3:20 PM64 °FBroken clouds.14 mph88%29.53 "HgN/A
2:50 PM64 °FPartly sunny.13 mph88%29.53 "HgN/A
2:20 PM64 °FPartly sunny.12 mph88%29.53 "HgN/A
1:50 PM61 °FLight rain. Partly sunny.9 mph100%29.56 "Hg3 mi
1:20 PM61 °FLight rain. Partly sunny.8 mph94%29.56 "HgN/A
12:50 PM61 °FRain. Broken clouds.9 mph94%29.56 "Hg4 mi
12:20 PM61 °FDrizzle. Broken clouds.9 mph94%29.56 "Hg5 mi
11:50 AM61 °FLight rain. Partly sunny.9 mph94%29.56 "Hg6 mi
11:20 AM61 °FPartly sunny.9 mph100%29.59 "HgN/A
10:50 AM61 °FRain showers. Mostly cloudy.9 mph100%29.59 "Hg4 mi
10:20 AM61 °FBroken clouds.8 mph94%29.59 "HgN/A
9:50 AM61 °FDrizzle. Broken clouds.9 mph94%29.59 "HgN/A
9:20 AM61 °FDrizzle. Broken clouds.9 mph94%29.59 "Hg5 mi
8:50 AM59 °FLight rain. Broken clouds.7 mph100%29.59 "Hg1 mi
8:20 AM59 °FBroken clouds.9 mph100%29.59 "HgN/A
Weather by CustomWeather, © 2015

See weather overviewHow to use our weather pages